Wind_Speed
7 7 8 8 9 9 10 11 11 11 12 12 12 13 13 13 13 14 14 14 15 15 15 15 15 15 14 14 14 13 12 11 11 10 10 11 11 10 10 11 12 11 10 11 11 11 12 13 14 14 14 14 15 16 18 19 21 23 21 21 21 19 18 17 16 15 12 6 3 10 16 12 10 7 6 8 11 14 13 12 11 10 10 11 11 13 14 13
7 7 7 8 8 9 10 10 10 11 11 12 12 12 12 13 13 13 13 14 14 14 14 14 14 14 14 14 13 13 13 12 11 11 11 12 11 11 11 11 11 11 10 12 12 12 12 13 14 14 14 15 16 17 19 20 22 23 22 23 22 19 18 16 16 16 14 11 6 7 9 9 12 12 7 9 9 10 12 12 10 9 10 11 12 14 15 14
7 7 7 8 8 9 10 10 10 11 11 11 12 12 12 12 12 13 13 13 14 14 14 14 14 14 13 13 13 13 13 13 12 12 12 12 11 11 12 12 11 11 11 12 12 12 14 15 16 16 15 15 16 19 20 20 22 23 23 24 21 19 20 17 16 16 14 13 11 8 5 5 11 14 8 10 9 8 10 10 9 9 10 11 13 14 15 14
8 8 8 8 8 9 10 10 10 10 11 11 12 12 12 12 12 12 13 13 13 13 14 14 13 13 13 13 12 12 13 13 14 13 12 11 11 11 11 12 12 12 12 12 13 13 14 15 16 16 17 17 17 19 21 21 22 23 24 24 19 19 21 19 18 17 15 14 15 12 7 7 11 13 7 6 9 8 7 9 10 10 11 12 13 14 16 15
8 8 8 8 9 9 10 10 10 11 11 11 12 12 12 12 12 13 13 13 13 13 14 13 13 13 13 13 12 12 12 13 13 14 13 12 11 10 10 10 11 12 12 12 13 13 14 15 15 17 18 18 19 20 21 22 23 23 25 23 20 21 22 20 19 18 14 13 16 14 10 10 12 13 11 9 8 8 7 9 10 10 12 13 13 15 16 16
9 9 9 9 9 10 10 11 11 11 11 11 12 12 12 12 13 13 13 14 14 14 14 13 13 13 13 13 12 12 12 11 12 14 14 12 10 10 11 10 10 11 12 11 12 13 14 14 15 17 18 19 20 21 22 22 22 23 24 23 21 22 23 21 18 15 10 11 15 13 11 12 13 13 14 13 10 8 6 7 7 8 9 11 12 14 15 17
9 9 9 9 10 10 11 11 11 11 11 11 12 12 12 12 13 13 14 14 14 14 14 14 14 13 13 13 13 13 13 13 13 14 15 15 14 13 13 12 11 10 11 11 12 12 13 14 15 16 17 18 19 21 22 22 21 23 24 23 23 23 24 22 17 14 9 9 12 11 12 13 12 13 14 14 15 13 8 5 6 8 9 11 12 15 17 17
9 10 10 10 10 11 11 11 12 12 12 12 12 12 12 13 13 14 14 14 15 14 14 14 14 14 13 13 13 13 14 15 15 15 16 17 16 14 13 12 11 11 10 12 12 13 13 15 14 15 16 16 17 19 20 20 20 24 24 22 22 22 22 20 16 14 12 11 11 12 14 12 10 14 16 16 18 18 15 11 8 8 9 12 13 15 16 12
10 10 11 11 11 11 12 12 12 12 12 12 13 13 13 13 14 14 14 15 15 15 14 14 14 14 13 13 14 14 14 15 15 15 16 17 16 14 14 13 13 13 12 12 13 14 14 13 12 12 13 13 14 17 17 18 19 22 23 21 21 21 20 19 16 15 14 13 13 15 16 10 8 15 16 16 16 15 16 16 12 10 9 11 12 13 13 9
11 11 12 12 12 12 12 12 12 12 13 13 13 13 13 14 14 14 15 15 15 15 15 15 15 15 14 13 14 14 13 13 14 16 17 18 17 15 14 14 13 13 14 14 14 13 11 9 9 11 13 12 14 15 15 17 19 19 20 20 21 22 21 20 18 15 14 14 14 17 16 9 8 13 12 11 12 11 13 15 15 14 11 10 11 10 10 8
12 12 12 12 12 12 12 12 12 13 13 13 13 14 14 14 14 15 15 15 15 15 15 15 15 15 14 14 15 15 14 14 15 16 17 18 18 17 14 15 15 14 14 14 13 11 9 9 11 13 14 13 14 15 15 17 16 16 18 20 22 22 23 22 19 16 15 16 13 15 16 12 12 13 11 9 10 10 12 13 14 14 12 10 11 9 8 6
13 13 13 13 13 12 12 12 12 13 13 13 14 14 14 15 15 15 16 16 15 16 16 15 15 15 15 13 12 14 14 14 16 16 16 16 17 17 14 14 16 16 15 14 12 11 11 12 14 14 12 11 14 14 14 15 16 16 17 21 23 24 26 25 21 18 17 17 12 12 16 17 16 15 13 13 14 14 14 15 15 13 11 10 11 10 7 3
13 13 13 13 13 13 12 12 12 13 13 14 14 14 15 15 15 16 17 17 16 17 16 16 15 15 15 10 7 12 13 13 15 14 13 14 15 15 13 12 14 17 17 14 12 13 13 13 14 14 12 14 15 14 14 15 15 16 17 21 23 24 27 25 22 20 20 18 13 13 17 18 18 16 15 18 19 19 19 19 18 15 12 12 12 11 8 4
13 13 14 14 14 13 13 13 12 13 13 14 15 15 15 15 16 17 18 18 17 17 17 17 16 15 16 8 5 12 13 13 14 11 11 13 14 13 11 9 11 15 16 15 15 17 17 15 17 19 18 18 17 16 17 16 16 16 16 20 22 24 26 23 19 19 20 19 16 15 18 18 16 15 15 19 23 22 21 20 20 17 14 14 14 12 10 6
14 14 15 15 15 14 14 13 13 13 14 15 15 16 16 16 17 18 19 19 18 19 18 18 16 16 17 11 10 14 13 13 13 11 13 15 14 11 10 10 11 14 16 16 17 20 20 17 20 21 21 19 18 18 19 17 18 17 17 19 21 24 26 23 20 19 19 19 18 16 17 17 16 15 15 19 24 23 22 21 20 19 16 16 16 14 12 9
15 16 16 16 16 16 16 15 15 15 15 16 17 18 18 18 19 20 20 20 20 20 19 19 17 17 17 12 12 12 10 12 13 14 16 15 13 9 9 11 13 15 17 18 19 22 21 20 20 21 22 20 19 19 17 17 19 19 19 22 21 22 24 23 20 19 17 17 19 19 19 20 19 17 17 20 24 23 22 20 20 21 19 18 18 15 14 13
17 17 18 18 18 18 17 17 16 17 17 18 19 20 20 21 22 22 22 21 22 21 21 20 18 19 17 13 14 13 12 14 14 15 15 14 10 7 8 10 11 16 19 20 22 24 23 22 21 20 22 22 21 18 15 18 23 22 22 23 22 21 22 23 20 15 13 13 14 16 19 22 21 19 18 19 22 24 23 21 20 21 21 21 20 18 17 17
18 19 19 20 20 19 18 18 18 18 18 19 20 21 22 24 25 25 25 25 24 23 23 20 19 20 16 11 14 15 15 15 15 15 15 14 9 6 8 8 11 16 19 21 24 25 24 24 23 21 23 25 24 21 20 22 22 19 18 19 20 21 22 24 21 15 12 12 12 13 17 19 20 23 23 22 22 24 24 22 21 21 22 22 22 20 19 20
19 19 20 20 20 19 18 18 18 17 18 18 20 21 22 25 26 27 28 28 27 25 24 22 21 20 14 9 8 10 13 14 13 13 12 11 8 6 7 10 14 17 17 20 24 26 25 23 24 25 27 29 27 25 25 24 21 16 15 16 17 19 23 25 23 19 16 17 16 15 17 18 19 23 26 26 25 26 26 24 24 23 22 22 23 21 20 22
18 19 19 20 19 19 18 17 17 17 16 16 19 21 22 25 26 27 29 30 29 28 28 27 25 22 18 12 8 10 13 13 13 11 11 10 7 6 8 13 19 19 18 19 19 23 25 24 28 31 31 29 26 24 24 24 23 22 21 21 20 20 25 27 25 22 17 19 21 17 19 22 21 22 25 25 25 27 27 27 27 26 23 23 23 21 21 24
18 19 19 19 18 18 17 17 16 15 14 16 18 20 22 24 25 26 28 28 27 28 30 30 29 27 20 15 13 16 17 15 15 13 13 12 10 10 11 14 20 22 21 20 15 16 21 26 32 33 31 28 24 22 22 24 24 24 24 25 26 26 29 29 26 23 17 18 22 20 24 27 24 24 25 25 26 28 27 28 29 28 26 24 22 21 22 26
18 18 18 18 18 17 17 16 15 14 14 15 18 19 21 23 24 25 27 27 23 23 28 28 30 30 23 18 16 19 22 19 18 17 16 16 14 14 13 13 17 20 20 19 17 15 19 29 32 29 26 25 23 22 23 24 24 24 23 23 27 29 30 29 26 22 16 17 21 22 27 29 26 26 27 26 27 28 27 27 28 29 29 25 21 20 23 27
17 17 18 17 17 17 16 15 14 14 13 15 17 18 19 21 23 23 25 28 21 16 21 24 26 29 24 21 19 22 25 23 21 20 19 19 18 15 14 14 14 16 19 20 20 20 22 24 21 18 20 21 21 20 19 21 22 23 23 23 26 27 25 26 24 17 15 19 23 25 28 29 26 26 26 25 26 28 28 27 26 29 30 26 22 21 23 27
17 17 17 17 16 16 16 15 14 14 13 15 16 15 17 19 20 20 21 26 22 14 15 16 20 25 21 20 23 25 24 23 24 22 21 22 20 16 15 14 13 15 19 20 20 23 24 16 9 10 14 15 17 17 17 19 21 21 21 24 26 23 20 23 21 17 19 21 20 20 22 24 22 18 20 23 24 26 27 27 26 28 30 27 25 24 25 28
16 16 16 16 16 16 16 15 14 14 14 15 14 12 14 15 15 17 18 21 21 17 13 10 12 16 17 22 25 22 20 23 24 22 23 24 19 17 15 13 15 17 18 19 19 23 23 15 12 13 12 12 14 15 15 17 21 21 21 23 22 18 16 18 18 19 23 17 12 11 11 15 19 16 14 18 22 26 25 25 25 27 30 30 28 27 26 30
16 15 15 15 15 15 15 14 13 14 14 14 12 9 10 11 12 14 15 17 17 12 9 8 7 7 11 20 23 19 19 22 22 22 25 25 20 17 15 15 16 17 17 18 19 23 21 14 14 15 14 13 15 17 15 15 20 22 20 18 15 14 15 15 15 16 17 14 13 14 9 12 20 16 9 9 13 20 20 20 21 24 29 31 30 27 25 30
15 14 13 13 14 13 13 13 12 12 13 12 11 9 7 9 10 11 12 11 9 7 8 8 5 3 4 11 17 18 16 14 16 22 25 24 21 18 17 18 17 14 15 17 20 23 20 14 13 13 13 14 15 14 10 10 17 21 17 13 12 14 15 15 13 13 16 18 21 21 12 11 17 10 3 3 3 8 10 13 17 22 26 29 28 24 22 28
13 11 9 11 12 10 10 12 11 10 11 11 11 9 7 7 7 7 6 4 4 6 9 7 3 5 7 5 12 17 14 9 10 16 22 24 22 19 19 21 18 13 11 17 22 21 15 12 11 10 11 14 14 10 6 9 15 16 13 12 15 15 14 17 16 14 16 17 22 24 13 7 10 8 2 2 1 2 4 7 11 16 21 24 23 20 21 27
11 8 7 10 12 10 9 11 11 9 9 10 10 8 8 5 2 1 1 1 2 5 7 4 3 6 9 6 10 14 15 11 6 7 17 24 22 19 18 18 16 13 13 17 21 18 12 11 10 11 15 15 14 12 13 17 18 14 11 14 17 16 17 19 17 17 14 10 19 25 14 6 7 7 5 3 2 0 1 3 5 9 15 19 20 20 22 28
9 7 7 10 12 11 11 11 11 10 10 9 8 7 8 6 4 3 2 3 2 5 3 2 3 5 8 8 7 12 16 12 3 4 14 22 21 19 19 17 15 16 16 19 21 19 16 15 16 17 17 15 15 15 16 19 18 17 18 18 18 19 21 20 17 16 10 6 18 23 14 8 6 5 5 3 3 1 2 2 4 6 11 15 19 22 24 26
9 9 9 11 12 13 12 12 10 9 10 10 7 7 8 8 7 5 2 3 3 2 1 2 2 3 5 7 9 10 17 15 7 7 14 19 21 21 21 21 20 19 19 22 23 22 21 21 21 21 20 18 19 19 17 17 16 17 20 19 16 15 16 15 12 10 4 5 15 16 12 12 8 5 4 1 2 3 3 3 4 6 9 14 20 23 25 26
10 10 11 11 12 13 13 12 10 9 10 10 7 7 10 10 9 10 6 3 2 3 7 6 3 3 4 3 6 9 15 19 13 10 14 16 20 24 23 22 22 19 18 23 24 23 24 24 23 20 19 20 21 21 19 17 14 16 18 18 12 5 4 5 4 3 3 7 12 11 10 10 9 9 8 5 5 5 4 3 3 8 10 13 21 25 26 25
11 11 12 11 11 12 12 11 9 8 9 9 7 7 11 8 5 12 12 6 4 7 13 15 10 4 5 5 3 8 13 18 18 15 14 14 16 20 21 22 24 21 16 17 19 19 20 22 22 22 21 19 20 23 22 18 16 18 20 19 12 3 2 2 3 2 4 7 9 9 8 6 5 7 6 6 5 5 4 1 2 10 15 18 26 28 29 30
11 11 11 10 9 10 10 9 7 6 8 9 7 9 13 9 5 8 9 8 9 12 14 15 12 5 2 8 7 3 10 14 19 18 15 15 16 19 22 23 25 25 21 17 14 13 13 13 15 18 17 14 15 19 19 17 17 18 19 20 15 8 5 3 3 3 4 4 3 4 5 3 4 4 3 4 3 3 4 4 5 10 17 23 31 34 37 36
10 9 8 7 7 7 7 7 6 5 7 8 8 11 14 11 9 8 7 8 11 15 13 11 10 7 2 5 11 5 7 13 16 18 17 17 16 17 20 22 23 25 24 19 13 12 13 13 13 13 11 9 10 13 14 16 16 14 16 17 15 13 10 8 7 6 5 1 2 1 2 2 5 5 4 4 3 4 7 8 9 13 20 27 29 31 32 25
8 7 6 5 5 5 4 4 3 3 5 5 7 12 13 11 9 8 8 10 12 16 14 7 5 5 5 5 11 10 4 9 12 16 17 18 17 16 17 21 23 26 26 22 14 9 11 14 14 13 14 12 11 11 13 16 14 11 13 16 15 13 13 12 8 5 3 1 0 0 2 5 6 4 4 5 4 6 10 11 13 18 27 30 25 22 19 12
6 5 4 4 4 3 1 1 2 2 2 3 6 9 10 10 10 10 11 12 10 10 10 6 3 6 9 9 10 11 5 5 9 15 17 16 16 15 17 20 23 26 27 26 19 10 10 14 14 13 14 12 11 12 14 17 17 15 13 14 14 12 11 11 5 1 0 1 2 3 5 7 6 3 7 10 7 8 11 12 14 17 23 25 23 21 17 11
4 4 4 4 3 2 1 2 2 3 2 3 6 7 8 8 9 9 10 10 7 5 4 6 6 6 7 10 12 12 10 7 4 12 15 14 11 11 13 15 17 21 23 24 22 15 11 14 15 14 12 10 9 12 13 15 19 21 17 13 10 7 6 9 6 1 2 2 1 3 5 6 7 7 10 12 10 12 14 14 13 13 15 17 17 17 15 13
3 4 4 3 3 2 2 3 3 3 4 5 6 7 8 8 7 7 8 8 7 5 2 3 7 7 7 9 11 12 9 5 3 8 13 13 11 9 10 10 11 15 17 19 20 17 9 7 11 13 11 8 8 11 12 12 16 20 19 15 13 10 6 8 8 5 4 3 1 1 2 5 9 11 13 15 16 17 16 16 16 15 17 18 17 16 15 14
4 5 4 3 3 2 2 2 2 3 4 5 6 6 8 8 7 8 8 8 6 5 4 2 7 10 9 7 7 10 8 4 3 4 8 9 10 10 10 11 12 13 15 14 14 15 10 4 8 12 9 8 9 7 5 6 11 17 18 17 15 14 10 6 7 7 4 3 4 3 2 6 11 14 15 16 17 18 19 20 22 23 24 24 20 17 15 14
6 6 5 4 3 2 1 3 5 5 5 5 7 7 8 9 8 8 8 9 7 6 5 3 6 9 9 4 2 5 8 5 2 2 4 6 8 8 9 11 13 14 15 13 11 12 9 3 7 10 8 9 10 7 4 2 4 9 13 17 17 16 13 7 5 7 6 3 4 5 2 6 13 16 15 14 14 17 20 21 22 24 25 24 21 17 14 14
7 7 5 3 2 1 3 5 7 6 5 6 7 8 8 8 9 9 9 8 7 8 7 5 5 4 5 3 1 1 4 3 1 2 5 5 3 4 5 6 8 11 14 16 16 17 13 7 8 10 8 7 9 10 9 6 3 2 4 11 15 15 16 12 6 7 9 5 3 4 2 4 12 13 12 13 15 18 20 19 20 21 20 19 19 17 15 15
8 7 4 3 1 1 4 6 6 6 7 7 8 8 9 9 10 11 10 6 6 8 9 7 6 4 2 2 1 1 2 1 2 2 2 2 3 2 4 5 5 7 10 12 14 20 20 12 9 8 6 7 12 13 12 12 11 8 2 4 9 11 15 16 10 9 11 9 7 5 2 4 11 10 9 12 17 20 19 17 18 18 15 13 15 16 17 17
8 6 3 2 1 1 3 5 6 6 7 8 9 8 8 8 9 11 10 7 6 8 8 9 8 5 3 2 3 2 3 2 2 4 5 5 6 3 3 4 4 5 7 7 7 14 18 14 8 4 2 5 7 7 9 12 16 16 9 5 5 6 10 13 12 10 9 10 11 6 3 7 13 13 11 12 15 16 16 15 16 15 14 14 15 17 18 18
6 5 4 3 3 3 3 3 5 7 7 7 8 7 7 6 7 8 7 6 8 7 7 9 9 7 5 2 2 2 3 3 4 5 4 4 5 3 3 2 2 3 4 6 6 8 12 15 12 6 2 4 3 4 6 9 13 15 14 11 7 5 6 6 8 9 7 9 12 8 7 11 16 16 15 14 15 14 14 13 12 14 16 17 18 19 19 18
6 5 5 4 3 4 2 2 5 8 8 6 5 5 5 3 3 3 2 5 7 7 7 8 9 8 7 7 5 4 2 2 4 6 6 6 5 5 4 3 1 1 0 2 5 5 7 14 16 12 7 4 3 3 4 8 12 13 13 14 11 7 4 1 2 4 5 8 11 9 9 12 18 20 19 18 17 15 14 13 12 13 15 16 19 19 17 16
6 5 5 4 3 1 1 3 6 9 9 4 2 3 4 1 3 4 4 4 5 7 7 8 10 10 9 8 8 5 2 3 5 7 8 7 7 6 5 4 3 2 1 1 4 5 7 13 16 15 11 6 4 4 4 6 11 12 12 14 14 12 8 3 4 4 1 6 7 9 12 12 15 22 22 21 19 16 15 16 15 16 17 17 18 18 16 16
6 6 6 5 4 1 2 5 8 9 7 3 2 2 2 1 4 6 5 3 3 6 7 6 8 9 8 8 8 6 5 6 6 8 8 7 8 9 8 7 5 2 2 4 5 6 7 11 14 16 14 8 5 6 5 5 8 9 9 10 13 15 16 13 8 5 2 2 3 8 14 11 12 20 21 20 20 18 17 18 18 19 19 19 19 18 18 19
5 6 7 6 4 2 5 6 8 8 5 2 2 1 1 0 2 5 5 4 4 6 7 6 6 7 7 8 9 7 6 7 8 10 9 8 8 10 9 8 6 3 1 4 6 5 7 10 13 17 15 9 6 5 3 3 5 5 6 6 9 11 15 17 15 10 6 4 3 8 15 13 14 18 18 19 20 18 17 17 19 20 20 19 19 20 20 20
6 7 8 6 4 3 5 5 5 5 4 2 1 1 1 2 1 3 4 4 5 6 6 4 3 6 6 6 7 7 6 8 11 11 10 8 9 9 8 7 7 5 2 3 5 4 5 6 9 15 15 11 10 8 4 3 3 4 5 6 6 6 8 11 14 14 10 4 1 10 16 16 17 19 19 20 19 16 16 18 20 22 22 20 20 20 21 21
8 8 7 6 4 2 3 2 1 2 2 3 4 3 1 1 1 3 4 5 6 6 5 4 3 3 6 7 6 6 6 9 11 11 8 8 10 10 7 7 6 4 3 1 3 4 5 5 5 9 10 10 13 13 8 6 5 4 5 7 6 6 7 6 8 11 10 5 4 12 18 17 19 21 20 19 17 16 17 19 22 26 27 24 21 20 20 20
9 8 8 7 4 1 1 1 2 2 1 3 5 5 3 2 1 2 3 4 5 6 4 5 6 4 6 9 8 7 8 9 10 11 8 6 8 10 9 5 2 3 4 2 2 3 4 5 4 5 7 8 10 14 11 8 5 4 4 5 5 7 8 8 8 9 9 6 5 9 15 16 19 23 22 20 19 18 19 21 24 27 28 24 21 20 20 21
Wind_Direction
271 273 274 274 273 272 271 270 268 266 265 263 262 262 262 263 264 264 265 265 265 265 265 265 264 264 263 262 264 269 274 277 278 279 272 265 267 264 251 245 247 244 235 236 233 229 229 229 231 231 232 232 228 225 221 220 215 211 213 219 226 233 235 236 235 227 224 253 9 35 30 37 23 345 251 248 236 232 251 254 242 235 232 241 249 252 260 262
273 274 275 275 275 275 274 273 272 271 270 269 268 267 266 266 266 266 267 266 266 267 266 267 267 266 265 264 264 265 268 273 273 274 271 269 268 262 255 250 247 242 232 229 230 227 227 226 227 226 227 229 226 224 220 218 219 218 219 226 233 240 242 242 243 235 234 253 286 6 22 35 10 341 286 258 251 237 252 254 242 240 240 251 260 259 262 261
275 276 276 277 278 278 277 277 277 276 275 274 273 272 271 270 269 269 268 268 268 268 269 269 270 270 269 267 267 265 264 267 267 268 269 269 268 262 257 253 246 240 233 228 226 225 227 227 225 222 220 224 223 222 222 219 221 224 224 230 237 244 248 249 247 242 241 253 278 314 346 2 350 336 293 249 262 261 254 253 253 255 248 254 259 261 267 267
275 275 275 276 277 279 279 279 279 279 279 278 278 276 275 274 273 272 270 270 270 271 272 272 272 273 272 270 269 268 265 263 261 262 264 264 264 260 254 250 242 236 233 229 226 225 228 231 230 225 220 219 218 219 223 222 221 224 227 234 242 247 251 250 247 247 249 261 277 287 298 316 332 337 316 267 272 263 252 257 265 270 264 262 265 273 272 263
276 275 276 277 278 279 279 279 280 280 280 280 280 279 279 278 277 276 275 274 273 274 274 274 274 274 274 271 269 269 267 265 257 254 259 259 255 254 252 246 239 234 231 229 228 228 230 234 234 231 225 218 214 217 222 222 221 225 229 238 243 245 249 247 246 251 257 265 267 271 286 297 313 329 322 296 282 279 273 262 264 275 274 271 277 279 266 254
276 277 277 278 279 279 279 280 280 279 279 279 279 280 281 280 280 280 279 278 277 277 276 276 276 275 275 272 270 267 263 263 254 249 255 252 244 250 257 249 237 232 230 229 229 230 232 235 235 233 233 225 216 218 221 219 222 229 233 238 241 243 247 245 247 249 251 256 253 266 289 286 299 319 310 287 281 299 288 256 259 265 267 269 275 280 281 276
278 279 279 280 280 280 280 280 280 280 280 280 280 281 282 282 282 281 280 280 279 279 278 278 278 276 276 273 269 264 260 258 252 249 251 251 251 255 257 251 243 235 228 226 224 229 234 236 236 235 237 232 224 222 221 217 221 232 234 236 239 243 246 247 251 248 242 251 253 272 286 276 292 312 304 284 278 290 290 275 270 261 264 271 278 290 296 287
281 282 283 283 282 282 281 281 281 281 282 282 283 282 282 282 281 281 281 281 281 281 281 280 279 277 276 274 269 263 260 258 253 250 249 252 253 252 250 246 242 237 231 226 222 223 227 233 236 236 237 234 234 231 224 219 221 231 235 236 238 242 247 251 257 256 253 257 259 272 272 266 289 302 296 285 280 283 284 284 276 264 267 272 285 298 296 288
285 286 286 285 285 285 284 284 283 283 284 283 283 283 281 281 281 281 281 282 283 283 283 281 279 278 275 273 270 265 261 258 255 252 249 249 247 244 244 241 238 236 233 228 224 223 225 229 232 233 235 233 237 236 225 221 222 229 237 241 242 241 243 247 251 254 255 254 260 269 263 254 292 298 289 280 278 280 280 279 273 270 268 275 293 299 293 299
285 284 284 284 283 283 283 283 283 283 283 282 282 282 280 280 280 280 281 281 282 283 283 282 280 279 276 273 269 268 265 259 254 251 248 248 248 246 243 240 237 233 232 228 226 228 227 225 220 222 228 226 228 225 214 217 221 225 235 241 242 242 239 239 241 239 244 249 259 273 263 243 282 290 281 278 279 276 277 276 272 271 268 276 291 290 290 313
283 282 280 280 279 279 280 279 281 281 281 281 281 280 280 279 278 278 278 278 279 280 281 282 281 280 278 274 271 269 265 259 255 252 250 249 251 253 250 248 241 229 225 227 224 218 208 201 206 215 220 224 225 216 209 217 225 228 238 242 239 243 244 241 240 234 242 248 253 275 265 245 262 267 263 280 284 280 279 276 273 269 262 267 275 275 289 323
282 282 280 279 278 277 278 278 280 280 280 280 279 279 279 279 279 278 277 276 276 277 279 280 281 281 279 279 278 272 262 256 256 253 252 250 254 258 258 257 247 230 219 218 215 199 187 190 203 212 213 220 220 216 215 221 233 238 247 253 244 243 243 240 239 236 244 246 242 274 269 252 252 247 250 271 275 275 275 271 269 259 252 260 262 266 282 304
283 283 282 282 280 279 279 279 279 279 280 279 278 277 276 277 278 277 276 275 275 275 276 276 278 280 279 281 279 270 263 257 255 256 262 261 260 263 263 261 252 235 219 207 196 181 176 186 200 205 208 219 215 215 220 219 233 240 247 257 253 251 245 239 240 240 244 245 242 264 267 257 253 244 246 260 264 267 270 269 265 253 245 253 258 263 265 258
283 283 283 281 280 279 278 276 276 276 277 277 277 276 275 276 276 275 274 274 275 274 274 274 275 277 275 275 264 266 268 264 260 261 268 264 260 262 258 255 251 237 216 196 185 175 172 184 200 205 210 221 219 220 227 224 232 242 246 249 253 258 250 241 245 247 245 246 245 256 263 260 256 249 245 254 259 262 267 268 262 254 245 245 253 259 254 247
282 282 281 280 278 277 275 274 273 273 273 273 274 274 274 275 274 274 273 273 274 272 272 272 273 275 273 270 263 266 267 262 258 250 247 243 242 249 250 243 240 230 207 190 184 177 177 192 208 211 213 222 226 227 234 236 235 240 251 246 243 253 252 248 251 251 249 249 250 255 263 261 252 246 241 249 257 259 265 264 256 254 251 245 249 255 250 240
281 280 280 279 277 275 274 274 273 273 272 271 272 272 272 272 272 272 272 273 272 270 271 271 272 273 272 272 268 267 263 256 250 242 241 240 236 239 245 242 235 222 201 187 183 180 186 201 213 217 217 220 227 232 244 255 245 234 244 248 243 249 256 257 256 255 257 255 254 257 264 266 257 247 240 244 254 259 261 260 252 251 252 250 251 254 248 239
279 279 278 277 276 275 275 274 274 273 273 272 271 271 271 269 268 269 270 271 270 270 269 270 270 270 271 269 264 262 259 254 247 239 236 236 234 225 229 238 232 214 195 184 185 186 193 205 213 219 221 221 225 232 245 254 247 236 240 250 254 257 261 262 260 260 261 259 262 267 273 273 266 259 248 242 251 256 256 255 253 252 252 252 253 256 248 239
278 278 277 276 276 275 275 275 275 274 273 273 271 270 269 268 266 266 267 266 266 267 269 268 266 268 269 263 260 256 248 245 242 237 229 224 219 206 210 224 221 205 192 188 192 194 199 209 216 221 224 224 225 228 233 241 245 246 251 258 261 262 261 260 261 264 268 276 279 282 285 277 266 261 253 248 254 259 256 253 254 255 253 252 254 258 249 240
277 277 276 276 275 276 276 275 275 274 274 275 273 270 268 267 266 266 265 263 263 264 266 265 261 261 259 257 263 246 231 234 237 232 221 210 201 197 197 201 203 194 190 195 200 203 206 213 218 221 224 224 226 230 235 242 252 259 264 266 266 265 259 253 256 263 274 287 283 281 287 279 267 258 250 250 256 260 260 256 254 254 254 253 254 257 249 241
277 277 276 276 276 277 277 277 276 275 275 275 273 271 268 268 267 265 264 264 265 265 263 262 262 259 253 250 240 223 224 228 227 213 198 195 184 199 206 197 195 192 192 195 201 210 213 220 224 225 227 227 230 237 242 249 255 259 262 263 264 266 259 251 254 261 274 291 286 286 295 287 279 266 252 254 258 255 256 256 253 251 252 253 253 255 249 241
280 279 278 278 279 279 279 279 279 278 277 274 271 270 270 271 270 269 268 267 267 268 265 263 262 259 253 244 225 219 224 222 219 204 195 199 191 203 215 205 201 201 199 191 196 212 217 224 228 229 232 236 240 243 246 250 254 259 261 263 263 261 258 254 258 266 274 290 290 294 301 292 283 274 263 265 265 252 247 250 251 249 249 253 253 253 247 238
282 281 280 280 280 280 280 280 280 279 276 272 270 270 271 273 274 276 278 278 275 271 271 269 265 263 255 245 231 223 224 224 224 213 206 212 209 210 217 218 218 215 209 200 202 215 222 227 230 233 237 242 246 244 246 250 254 257 258 262 261 255 256 258 261 270 278 290 294 299 301 291 284 284 273 266 260 246 239 244 247 246 246 248 248 245 241 236
282 281 280 280 280 280 279 279 279 277 273 270 269 271 274 276 278 283 288 292 288 271 272 273 269 266 255 243 237 230 228 229 231 221 213 219 223 220 217 224 236 227 217 212 211 217 225 230 232 237 241 241 242 241 244 250 252 253 253 255 255 255 262 265 264 275 287 291 294 297 299 290 289 291 272 254 249 242 238 243 247 246 246 247 248 244 240 235
282 280 279 278 278 278 277 276 276 273 269 268 269 273 276 277 285 293 296 299 297 287 287 283 270 266 255 240 237 237 235 232 233 227 220 225 225 218 213 223 238 229 222 221 219 225 233 236 239 246 246 241 241 241 243 252 255 254 251 250 253 257 261 265 272 291 297 294 292 297 301 292 298 302 269 248 246 245 241 243 248 246 244 247 249 245 242 236
281 279 277 277 276 275 275 274 271 270 267 268 272 276 277 284 299 305 306 308 307 303 309 307 280 270 252 233 233 237 237 233 233 227 224 230 227 214 208 217 230 231 230 225 225 238 245 246 247 251 250 243 244 247 248 254 260 261 253 245 251 258 257 264 280 291 294 294 290 308 318 299 312 323 286 257 245 242 243 244 247 244 241 242 244 245 243 234
279 276 276 276 274 272 273 272 269 268 266 268 273 274 279 293 307 314 318 316 310 311 324 332 321 294 246 230 229 231 236 238 236 226 223 229 228 218 210 214 224 230 232 228 234 248 252 247 245 248 248 248 253 258 255 256 264 264 250 239 245 254 257 269 277 276 281 286 286 299 309 293 309 327 316 282 245 241 249 251 250 244 238 241 245 247 242 229
277 276 277 274 271 270 270 271 268 266 267 268 270 272 278 290 302 319 325 312 306 327 346 351 3 353 281 234 224 224 232 242 237 227 223 223 220 214 212 218 224 227 226 226 235 245 248 242 236 234 239 248 254 257 253 249 262 262 245 228 234 241 250 263 269 268 275 284 285 287 291 283 292 305 328 334 261 241 252 249 246 241 238 243 244 238 230 223
276 278 277 271 270 270 268 270 269 267 269 265 265 267 264 276 297 321 334 317 316 348 357 9 41 359 335 259 220 222 228 243 249 233 221 216 214 209 212 220 226 234 231 226 234 243 247 238 222 223 244 250 247 252 265 253 257 262 249 235 238 245 258 261 264 272 274 282 281 278 286 284 271 269 279 336 306 246 251 237 236 239 238 238 233 221 215 216
276 278 273 268 270 272 268 269 271 273 269 263 266 262 248 250 263 303 350 302 313 357 11 32 54 356 335 285 225 213 217 231 261 233 209 207 209 214 222 223 222 235 246 245 250 254 252 245 241 253 262 257 251 264 285 276 264 263 261 252 252 260 265 258 260 270 270 272 268 269 276 270 258 263 252 252 261 260 330 257 246 242 234 229 222 212 207 210
278 278 271 268 272 274 270 268 271 273 268 264 264 247 227 213 199 202 218 249 309 26 50 120 96 27 1 326 266 215 206 210 203 186 200 204 208 216 227 231 227 233 244 250 258 261 257 257 261 263 260 259 265 275 288 287 275 270 270 266 265 263 255 251 258 265 268 262 256 261 267 255 253 268 247 237 267 294 23 315 268 236 223 224 221 211 204 206
283 281 273 268 270 274 271 270 272 269 266 264 255 233 211 199 196 187 185 261 289 359 287 198 119 62 33 349 306 244 211 203 183 181 199 203 206 212 219 225 227 233 244 247 252 260 262 261 260 259 256 258 269 276 282 286 271 263 267 263 259 256 246 250 260 251 235 251 255 259 262 247 231 233 237 226 288 306 356 343 305 264 233 221 219 212 205 205
288 281 273 269 270 273 272 273 273 266 263 258 243 217 198 193 204 213 227 289 306 326 328 324 338 20 25 339 299 268 229 212 202 203 213 211 209 214 218 219 219 222 236 243 247 257 262 261 261 259 253 253 266 275 279 279 255 239 245 242 237 242 241 261 268 227 212 241 253 259 250 235 224 233 250 259 270 296 325 345 311 273 255 226 216 210 203 204
286 278 275 274 273 273 274 275 271 262 257 250 236 204 192 187 217 231 242 270 283 310 324 319 309 327 3 355 286 260 245 225 218 218 225 225 218 221 225 225 224 222 230 241 245 252 259 262 261 257 254 254 261 266 268 265 241 223 222 219 214 159 92 280 267 265 267 243 239 238 223 215 228 240 261 264 263 282 277 278 241 246 244 222 209 206 206 209
282 279 282 281 277 275 275 276 271 257 246 242 229 198 194 200 231 249 264 280 287 300 311 311 303 278 355 20 28 275 247 230 224 221 222 225 221 222 226 227 228 229 236 246 249 246 252 263 256 246 248 257 259 256 257 257 240 225 220 219 221 211 182 219 241 230 251 236 209 200 195 218 243 232 281 278 261 277 244 207 200 223 229 217 205 204 207 204
283 285 285 283 277 274 277 284 282 255 237 237 221 203 206 220 240 266 292 302 308 309 305 302 303 291 271 34 42 43 228 222 218 217 221 227 226 225 229 230 231 229 231 236 243 244 247 257 253 235 231 252 270 261 250 246 236 225 224 224 226 230 225 233 246 240 238 248 45 99 165 187 199 202 243 249 231 239 220 202 193 196 209 212 205 205 206 198
285 285 279 269 258 264 281 293 282 226 217 227 220 219 227 237 248 267 286 299 315 316 313 305 292 324 342 0 36 59 169 223 224 219 221 227 232 235 235 235 232 230 229 227 229 239 247 255 257 249 246 253 266 264 246 239 234 222 228 232 235 247 247 236 235 243 241 248 34 232 133 150 168 182 180 161 172 205 199 201 198 192 200 201 191 189 192 182
281 273 255 234 229 240 282 302 258 203 200 224 231 237 247 253 257 267 277 287 303 316 327 336 325 357 357 336 359 32 22 295 250 229 223 222 230 237 240 240 237 234 233 230 229 238 258 263 258 251 255 257 254 253 249 246 245 240 242 246 242 246 244 225 209 67 234 228 214 201 173 164 168 166 159 147 140 166 173 184 190 189 194 188 172 169 172 178
270 244 218 208 210 221 260 283 267 255 269 260 250 253 261 262 259 263 267 269 273 280 321 345 340 349 342 318 333 353 346 338 268 223 215 212 217 225 233 238 239 237 232 228 230 238 259 272 265 256 262 274 268 261 257 248 242 241 245 248 237 225 217 207 201 107 155 190 249 200 181 184 192 190 178 165 157 165 168 174 184 197 199 185 171 170 174 182
230 200 194 198 201 221 256 267 260 264 270 257 252 255 258 256 245 246 253 252 259 266 254 348 339 334 320 308 324 334 327 334 299 227 211 211 212 212 218 212 212 219 218 219 226 231 242 271 268 262 266 279 280 268 260 245 234 235 236 236 234 233 229 215 210 199 172 169 183 182 193 218 209 197 190 180 177 184 189 191 200 209 203 191 183 180 176 173
182 180 186 193 200 224 262 283 299 305 297 276 268 262 261 262 246 235 245 247 256 266 239 284 334 336 331 314 311 310 301 318 322 233 210 217 220 225 229 214 200 194 188 190 206 217 222 247 265 264 267 274 273 263 253 238 227 228 228 226 224 221 216 214 216 211 187 160 159 155 225 226 203 198 200 192 187 195 204 206 201 192 187 185 182 178 173 167
173 176 180 189 208 243 309 343 342 336 324 305 294 282 273 271 256 235 236 243 251 251 236 269 333 342 343 338 303 288 285 296 337 213 218 226 226 236 238 226 222 215 205 203 209 214 213 225 272 281 293 280 260 232 204 218 225 223 225 224 221 214 205 198 214 216 203 192 176 165 197 210 195 199 206 203 203 207 212 214 204 190 185 183 178 174 171 168
177 178 179 187 215 291 343 350 347 339 328 314 305 298 285 270 263 252 241 243 249 241 236 263 298 318 330 331 72 220 268 272 186 202 237 235 228 244 238 228 233 235 234 235 236 234 231 236 267 290 308 272 221 193 192 205 220 207 218 225 223 218 213 207 212 215 204 205 189 153 133 185 190 200 205 202 208 208 207 210 204 196 194 189 183 180 174 170
184 187 185 181 196 334 354 354 341 325 318 314 309 307 298 281 268 261 256 253 246 237 239 254 270 283 310 330 343 195 197 192 135 128 177 176 133 179 222 227 232 238 247 249 244 239 235 236 254 272 276 221 192 185 194 209 228 241 249 225 220 219 217 214 224 229 210 200 183 141 94 178 183 192 200 202 209 208 205 207 204 203 205 201 193 187 181 180
187 188 173 152 130 9 1 0 342 319 309 309 312 308 301 292 271 261 263 259 243 236 235 244 257 269 282 342 339 255 216 219 184 122 111 131 134 147 206 226 238 243 246 249 251 242 229 216 217 234 198 186 190 198 209 213 223 230 226 212 216 220 214 215 224 226 212 206 200 177 157 179 180 185 191 200 211 210 207 213 210 202 198 196 197 197 196 196
190 174 152 138 98 64 39 2 346 343 332 317 317 313 301 291 275 273 272 248 242 244 237 243 252 257 258 274 311 277 243 213 180 155 144 150 147 162 202 212 234 249 247 245 255 258 232 208 208 226 187 168 203 236 236 217 209 214 219 221 234 240 215 213 223 219 210 209 207 193 166 168 176 186 191 196 202 199 197 205 202 193 194 199 203 207 208 208
188 171 162 151 113 86 59 349 346 358 353 327 315 324 315 286 246 259 228 213 232 241 239 245 247 248 257 262 260 266 257 192 173 182 197 195 174 174 186 191 216 222 206 236 236 246 226 207 215 234 227 188 200 220 228 223 208 200 202 206 215 226 227 348 310 239 214 198 201 203 190 182 182 186 191 195 196 193 194 197 196 194 197 203 206 210 212 213
193 196 186 172 167 161 20 355 357 3 359 340 319 340 330 287 181 179 177 188 212 220 231 249 249 245 249 248 247 248 213 163 170 185 186 176 165 158 155 162 178 171 139 234 248 234 215 205 207 215 211 205 224 206 186 209 215 210 202 201 206 212 224 282 347 346 234 192 203 209 205 206 195 185 188 193 190 187 193 201 205 202 198 199 204 208 210 209
205 205 193 190 205 219 22 13 12 17 19 27 43 8 331 251 201 196 192 181 192 209 214 224 234 234 235 241 245 233 190 172 179 190 184 166 157 155 161 171 168 158 205 250 259 244 227 216 205 203 200 189 179 184 179 185 201 206 207 212 217 218 228 245 269 313 317 227 239 203 190 198 197 184 185 192 193 195 200 208 215 211 202 199 201 204 205 205
210 190 177 183 191 97 60 45 38 42 53 61 37 350 295 249 220 217 214 216 229 225 209 197 200 203 212 238 246 232 202 189 188 187 186 187 174 161 169 187 179 132 99 264 263 251 238 228 218 217 215 198 174 180 195 199 201 204 205 222 234 231 236 244 248 262 287 318 291 191 177 179 185 182 187 198 204 207 208 212 218 216 211 205 201 201 201 201
188 177 169 168 160 109 90 83 72 76 94 86 60 230 272 345 317 267 258 259 264 241 211 196 192 183 185 212 229 226 208 197 193 182 171 181 186 168 157 168 171 148 118 292 288 271 246 231 221 223 222 217 220 228 232 227 240 250 226 222 227 220 228 240 241 247 263 299 223 180 174 172 175 179 191 203 208 209 208 210 211 210 212 211 204 201 201 200
182 187 183 179 172 137 119 119 69 74 107 94 84 94 70 16 284 273 281 289 297 281 244 254 281 207 186 192 203 205 192 188 194 192 180 174 182 185 169 147 150 143 113 342 307 284 248 221 206 216 212 206 219 228 230 228 240 257 227 206 201 197 202 214 223 231 241 254 201 181 177 173 171 178 193 204 210 213 213 212 208 205 208 208 203 204 207 205
188 196 191 189 198 187 170 250 329 359 66 85 90 99 98 98 135 271 283 278 290 301 296 288 291 264 203 194 194 199 193 192 199 206 208 186 172 189 195 173 145 116 103 81 309 275 221 187 167 193 187 181 207 215 208 202 213 238 215 187 188 203 207 202 201 210 217 226 227 202 194 188 179 182 193 202 209 216 215 213 211 208 209 209 204 205 209 207
Height
3108 3108 3108 3108 3108 3107 3107 3107 3106 3106 3106 3105 3105 3105 3105 3104 3104 3104 3104 3104 3103 3103 3103 3103 3103 3103 3103 3103 3104 3104 3104 3104 3103 3103 3103 3102 3102 3102 3102 3102 3102 3103 3103 3103 3104 3104 3104 3105 3105 3106 3107 3107 3108 3109 3110 3110 3111 3110 3111 3112 3113 3115 3114 3114 3115 3116 3117 3117 3117 3117 3117 3117 3117 3117 3118 3118 3117 3117 3117 3117 3118 3118 3119 3118 3119 3118 3119 3119
3106 3106 3106 3106 3106 3106 3105 3105 3105 3105 3104 3104 3104 3103 3103 3103 3102 3102 3102 3102 3102 3101 3101 3101 3101 3101 3101 3101 3102 3102 3102 3102 3102 3101 3101 3101 3101 3101 3101 3101 3101 3101 3102 3102 3102 3103 3103 3103 3104 3105 3106 3106 3107 3108 3108 3109 3109 3109 3110 3111 3112 3113 3113 3114 3115 3116 3117 3116 3116 3117 3117 3117 3118 3118 3118 3118 3117 3117 3117 3117 3117 3118 3118 3118 3118 3118 3118 3118
3105 3105 3105 3104 3104 3104 3104 3104 3103 3103 3103 3102 3102 3102 3101 3101 3101 3101 3100 3100 3100 3100 3099 3099 3099 3099 3099 3100 3100 3100 3100 3100 3100 3100 3100 3099 3099 3099 3099 3100 3100 3100 3100 3101 3101 3101 3101 3102 3102 3103 3104 3105 3106 3106 3107 3108 3108 3109 3110 3110 3111 3112 3112 3114 3115 3115 3116 3116 3116 3116 3116 3117 3117 3118 3118 3118 3117 3118 3118 3117 3118 3118 3118 3118 3118 3118 3118 3118
3104 3103 3103 3103 3102 3102 3102 3102 3102 3101 3101 3101 3101 3100 3100 3099 3099 3099 3098 3098 3098 3098 3098 3097 3097 3098 3098 3098 3098 3098 3098 3098 3098 3098 3098 3098 3098 3098 3098 3098 3099 3099 3099 3099 3100 3100 3100 3101 3101 3102 3103 3103 3104 3105 3106 3106 3107 3107 3108 3108 3110 3112 3111 3112 3114 3114 3115 3115 3115 3115 3115 3115 3116 3116 3117 3118 3117 3117 3118 3118 3118 3118 3118 3118 3118 3117 3117 3118
3102 3102 3101 3101 3101 3100 3100 3100 3100 3100 3099 3099 3099 3099 3098 3098 3097 3097 3097 3096 3096 3096 3096 3096 3096 3096 3096 3096 3096 3096 3097 3096 3096 3097 3097 3096 3096 3097 3097 3097 3097 3097 3097 3098 3098 3099 3099 3100 3101 3101 3101 3102 3102 3103 3104 3105 3106 3106 3106 3108 3109 3110 3110 3111 3113 3113 3114 3115 3114 3114 3114 3114 3114 3115 3116 3117 3117 3117 3117 3118 3118 3118 3118 3117 3117 3116 3116 3116
3101 3100 3100 3099 3099 3099 3099 3098 3098 3098 3098 3098 3097 3097 3096 3096 3096 3095 3095 3094 3094 3094 3094 3094 3094 3094 3094 3094 3095 3095 3095 3095 3095 3095 3095 3095 3095 3095 3096 3096 3096 3096 3096 3097 3097 3097 3098 3099 3099 3100 3100 3101 3101 3102 3103 3104 3105 3105 3106 3107 3108 3109 3108 3109 3111 3112 3113 3113 3112 3113 3113 3113 3113 3114 3116 3116 3117 3117 3117 3117 3117 3117 3117 3116 3116 3116 3116 3116
3099 3099 3098 3098 3097 3097 3097 3097 3096 3096 3096 3096 3095 3095 3094 3094 3094 3093 3093 3092 3092 3092 3092 3092 3092 3092 3092 3093 3093 3093 3093 3093 3093 3094 3094 3094 3094 3094 3094 3095 3095 3095 3095 3096 3096 3096 3097 3098 3098 3099 3099 3100 3100 3101 3102 3104 3104 3104 3104 3106 3107 3108 3107 3108 3109 3110 3112 3112 3111 3112 3112 3111 3112 3113 3114 3115 3116 3117 3117 3117 3117 3116 3116 3116 3116 3116 3115 3116
3098 3097 3097 3096 3096 3095 3095 3095 3094 3094 3094 3094 3093 3093 3093 3092 3092 3091 3091 3091 3090 3090 3090 3090 3090 3090 3091 3091 3091 3091 3091 3091 3091 3092 3092 3092 3093 3093 3093 3093 3094 3094 3094 3094 3095 3095 3095 3096 3097 3098 3098 3099 3100 3101 3102 3103 3103 3103 3103 3104 3106 3107 3106 3107 3108 3108 3109 3110 3110 3110 3109 3110 3111 3112 3112 3113 3114 3115 3115 3116 3116 3115 3115 3115 3116 3115 3115 3116
3096 3096 3095 3095 3094 3093 3093 3093 3093 3092 3092 3092 3091 3091 3091 3090 3090 3090 3089 3089 3089 3089 3088 3088 3088 3089 3089 3089 3089 3089 3089 3089 3090 3090 3090 3090 3091 3091 3092 3092 3092 3092 3093 3093 3093 3093 3094 3095 3097 3097 3098 3099 3100 3100 3101 3102 3102 3102 3103 3104 3104 3105 3105 3106 3106 3107 3107 3108 3109 3108 3108 3108 3110 3110 3111 3112 3113 3113 3114 3115 3115 3115 3115 3115 3115 3115 3114 3116
3095 3094 3094 3093 3092 3092 3091 3091 3091 3091 3091 3090 3090 3090 3089 3089 3088 3088 3087 3087 3087 3087 3087 3087 3087 3087 3087 3087 3087 3087 3087 3088 3088 3088 3088 3088 3089 3090 3090 3090 3091 3091 3092 3092 3092 3093 3094 3095 3096 3096 3097 3098 3098 3099 3100 3100 3101 3102 3102 3102 3102 3103 3103 3103 3104 3105 3106 3106 3107 3108 3107 3107 3108 3109 3110 3110 3111 3112 3113 3113 3113 3114 3114 3115 3115 3114 3115 3116
3093 3092 3092 3091 3091 3090 3090 3089 3089 3089 3089 3089 3088 3088 3087 3087 3086 3086 3085 3085 3085 3085 3085 3085 3085 3085 3085 3085 3085 3085 3085 3086 3086 3086 3086 3086 3087 3088 3088 3089 3089 3090 3090 3091 3092 3093 3094 3094 3094 3095 3096 3097 3097 3098 3099 3099 3100 3101 3101 3100 3100 3101 3101 3101 3102 3104 3105 3105 3106 3107 3107 3106 3107 3108 3109 3109 3110 3110 3111 3112 3112 3113 3114 3114 3114 3114 3115 3116
3091 3090 3090 3090 3089 3089 3088 3088 3087 3087 3087 3087 3086 3086 3086 3085 3085 3084 3084 3083 3083 3083 3083 3083 3083 3083 3083 3084 3083 3082 3083 3084 3084 3084 3084 3085 3085 3086 3087 3088 3088 3088 3088 3090 3091 3092 3092 3092 3093 3094 3095 3095 3096 3097 3098 3098 3098 3099 3099 3098 3098 3099 3098 3099 3101 3102 3104 3103 3105 3107 3105 3104 3105 3107 3109 3109 3109 3110 3111 3111 3112 3113 3114 3114 3113 3114 3115 3115
3089 3088 3088 3088 3087 3087 3086 3086 3085 3085 3085 3085 3084 3084 3084 3083 3083 3082 3082 3081 3081 3081 3081 3081 3081 3082 3081 3082 3082 3080 3081 3082 3081 3082 3083 3083 3084 3084 3085 3086 3086 3087 3087 3088 3090 3091 3091 3092 3092 3093 3094 3094 3094 3096 3096 3096 3096 3097 3098 3097 3096 3097 3096 3097 3100 3101 3102 3102 3104 3105 3103 3103 3104 3106 3108 3107 3107 3108 3109 3110 3111 3112 3113 3113 3113 3113 3114 3115
3087 3087 3086 3086 3085 3085 3084 3084 3084 3084 3083 3083 3082 3082 3082 3082 3081 3080 3080 3080 3079 3079 3079 3079 3079 3080 3079 3081 3081 3079 3080 3080 3080 3081 3081 3081 3082 3083 3084 3084 3085 3086 3086 3087 3088 3089 3089 3091 3091 3091 3092 3092 3093 3094 3094 3095 3095 3095 3096 3095 3095 3095 3093 3096 3099 3099 3101 3101 3103 3104 3101 3101 3103 3105 3107 3106 3105 3106 3107 3108 3109 3110 3112 3112 3112 3113 3114 3115
3085 3085 3085 3084 3084 3083 3083 3083 3082 3082 3082 3081 3081 3080 3080 3080 3079 3078 3078 3078 3078 3077 3077 3077 3077 3077 3077 3079 3079 3078 3078 3078 3078 3079 3079 3079 3080 3081 3082 3083 3083 3084 3085 3085 3086 3087 3088 3088 3089 3089 3090 3091 3092 3092 3092 3093 3093 3094 3095 3094 3094 3093 3091 3094 3097 3097 3099 3100 3102 3102 3099 3099 3101 3102 3105 3105 3103 3104 3105 3106 3107 3108 3110 3111 3111 3112 3113 3114
3084 3083 3083 3083 3082 3082 3081 3081 3080 3080 3079 3079 3079 3078 3078 3077 3077 3076 3076 3076 3075 3075 3075 3075 3076 3075 3075 3076 3076 3076 3076 3076 3076 3077 3077 3077 3078 3080 3081 3081 3081 3083 3083 3084 3085 3086 3086 3086 3087 3088 3089 3090 3090 3091 3091 3092 3092 3093 3093 3091 3092 3092 3091 3092 3094 3096 3098 3099 3100 3099 3097 3097 3098 3100 3103 3103 3101 3102 3103 3104 3105 3107 3108 3109 3110 3111 3113 3113
3082 3082 3081 3081 3080 3080 3079 3079 3078 3078 3077 3077 3076 3076 3075 3074 3074 3073 3073 3073 3072 3072 3073 3073 3074 3073 3073 3074 3074 3074 3075 3074 3074 3075 3075 3076 3076 3078 3079 3079 3080 3081 3082 3082 3083 3083 3084 3084 3085 3086 3087 3088 3089 3090 3091 3090 3089 3090 3091 3090 3091 3091 3091 3090 3092 3095 3096 3096 3097 3096 3095 3095 3096 3098 3100 3101 3100 3100 3101 3102 3103 3105 3107 3108 3109 3110 3111 3112
3080 3080 3079 3079 3078 3077 3077 3076 3076 3075 3075 3075 3074 3073 3072 3071 3070 3070 3070 3070 3070 3070 3070 3071 3072 3071 3071 3072 3071 3072 3072 3072 3072 3073 3073 3074 3074 3076 3077 3078 3079 3079 3080 3081 3081 3082 3083 3083 3084 3085 3085 3086 3087 3088 3088 3087 3087 3089 3090 3090 3090 3091 3090 3089 3090 3093 3093 3093 3093 3093 3093 3092 3093 3095 3097 3098 3099 3099 3100 3101 3102 3103 3105 3106 3107 3109 3110 3111
3078 3078 3077 3077 3076 3075 3074 3074 3073 3073 3073 3072 3071 3071 3069 3068 3068 3067 3067 3066 3067 3068 3068 3068 3069 3070 3070 3070 3070 3069 3070 3071 3071 3071 3072 3072 3073 3074 3075 3076 3077 3077 3078 3079 3080 3081 3081 3082 3082 3082 3081 3083 3084 3085 3086 3086 3088 3089 3090 3090 3090 3090 3089 3088 3088 3090 3091 3091 3090 3091 3091 3090 3091 3091 3093 3095 3096 3097 3098 3099 3100 3101 3103 3104 3106 3107 3108 3109
3076 3076 3075 3075 3074 3073 3072 3071 3071 3071 3071 3070 3069 3068 3067 3065 3065 3064 3063 3063 3064 3066 3065 3065 3065 3067 3068 3070 3069 3068 3068 3069 3070 3070 3071 3071 3072 3072 3074 3075 3075 3076 3076 3077 3079 3079 3080 3080 3079 3078 3079 3081 3083 3085 3086 3087 3088 3088 3089 3089 3089 3088 3086 3085 3087 3089 3091 3090 3087 3089 3089 3088 3088 3087 3088 3091 3092 3093 3095 3096 3097 3099 3101 3102 3104 3106 3107 3107
3074 3073 3073 3072 3071 3070 3070 3069 3069 3069 3069 3068 3066 3065 3064 3063 3062 3061 3060 3060 3062 3063 3061 3062 3062 3062 3066 3068 3068 3067 3066 3067 3068 3069 3069 3069 3070 3071 3072 3073 3074 3074 3074 3076 3077 3078 3079 3077 3075 3076 3079 3081 3084 3085 3086 3086 3087 3087 3088 3087 3087 3087 3084 3084 3086 3088 3091 3089 3086 3087 3087 3085 3084 3083 3083 3086 3087 3089 3091 3093 3094 3097 3098 3100 3102 3104 3104 3105
3072 3071 3070 3070 3069 3068 3067 3067 3067 3067 3067 3066 3064 3064 3063 3062 3060 3059 3058 3058 3060 3061 3059 3059 3058 3059 3063 3065 3066 3065 3064 3064 3066 3067 3068 3068 3068 3069 3070 3071 3071 3072 3073 3075 3075 3076 3076 3073 3073 3077 3080 3081 3083 3084 3084 3084 3085 3085 3086 3086 3084 3084 3083 3082 3084 3087 3089 3088 3086 3086 3085 3082 3081 3080 3079 3081 3083 3085 3088 3089 3091 3094 3095 3097 3099 3101 3101 3102
3069 3069 3068 3067 3067 3066 3065 3065 3065 3065 3064 3063 3063 3062 3062 3060 3059 3059 3057 3055 3056 3057 3056 3056 3055 3054 3058 3061 3063 3062 3061 3062 3064 3065 3066 3066 3066 3068 3069 3069 3070 3071 3072 3073 3073 3074 3072 3071 3074 3078 3079 3080 3081 3082 3082 3082 3083 3083 3084 3084 3081 3082 3084 3082 3083 3086 3087 3087 3085 3084 3082 3079 3078 3077 3076 3077 3079 3082 3084 3086 3088 3090 3092 3095 3097 3098 3098 3099
3067 3066 3066 3065 3065 3064 3063 3063 3063 3063 3063 3061 3061 3062 3061 3060 3059 3059 3058 3055 3053 3053 3053 3053 3052 3051 3054 3057 3058 3057 3059 3061 3061 3063 3064 3063 3065 3067 3067 3068 3069 3070 3070 3071 3072 3072 3070 3071 3075 3076 3077 3078 3079 3079 3080 3080 3080 3081 3081 3081 3080 3082 3084 3083 3083 3085 3084 3084 3084 3083 3081 3078 3076 3075 3074 3075 3077 3078 3081 3083 3085 3087 3090 3093 3094 3095 3096 3097
3065 3064 3064 3063 3063 3062 3061 3061 3061 3061 3061 3060 3060 3061 3060 3059 3060 3059 3057 3056 3053 3050 3050 3050 3049 3049 3050 3051 3052 3054 3057 3057 3057 3061 3062 3061 3064 3065 3066 3067 3068 3068 3069 3070 3072 3070 3069 3072 3074 3074 3075 3077 3077 3077 3078 3079 3078 3079 3078 3079 3080 3082 3083 3083 3084 3084 3082 3082 3082 3083 3081 3077 3073 3073 3073 3073 3074 3075 3078 3080 3082 3084 3087 3089 3091 3092 3094 3095
3062 3062 3062 3061 3061 3060 3059 3059 3059 3059 3059 3059 3060 3061 3060 3059 3059 3059 3057 3056 3052 3049 3049 3049 3048 3048 3047 3048 3050 3053 3054 3054 3056 3059 3059 3060 3063 3064 3065 3066 3066 3067 3069 3070 3071 3068 3067 3070 3072 3073 3074 3075 3075 3075 3076 3077 3077 3076 3076 3078 3080 3081 3082 3082 3083 3083 3082 3081 3081 3082 3083 3078 3073 3072 3072 3071 3071 3073 3075 3077 3079 3082 3084 3086 3088 3090 3091 3092
3060 3060 3060 3059 3059 3059 3058 3057 3058 3058 3058 3058 3058 3059 3060 3059 3059 3059 3058 3057 3052 3049 3049 3048 3048 3048 3047 3048 3050 3052 3053 3053 3054 3055 3056 3058 3060 3062 3063 3063 3064 3066 3068 3070 3069 3065 3065 3068 3070 3071 3072 3073 3073 3073 3073 3076 3076 3074 3074 3078 3079 3080 3081 3081 3082 3082 3081 3080 3079 3080 3082 3079 3074 3073 3072 3071 3071 3072 3074 3075 3077 3079 3082 3083 3085 3087 3088 3090
3059 3059 3059 3058 3057 3057 3057 3056 3056 3057 3057 3057 3057 3058 3059 3059 3059 3059 3059 3058 3052 3049 3049 3048 3048 3048 3048 3048 3049 3050 3052 3052 3052 3052 3054 3056 3058 3060 3061 3061 3063 3065 3067 3068 3065 3063 3065 3067 3068 3070 3071 3071 3071 3071 3073 3075 3075 3073 3074 3077 3078 3078 3079 3080 3081 3081 3080 3080 3077 3076 3080 3079 3075 3073 3072 3072 3071 3072 3074 3075 3076 3078 3079 3081 3083 3085 3086 3089
3057 3057 3057 3057 3056 3056 3056 3055 3055 3056 3056 3056 3056 3057 3058 3059 3059 3059 3060 3057 3050 3048 3049 3048 3048 3047 3046 3046 3047 3048 3050 3051 3051 3051 3052 3055 3057 3059 3059 3060 3063 3064 3065 3065 3063 3063 3066 3067 3068 3069 3069 3069 3069 3070 3072 3073 3073 3073 3074 3076 3076 3077 3078 3078 3079 3079 3080 3079 3074 3074 3078 3077 3074 3072 3072 3071 3071 3072 3074 3074 3076 3077 3078 3080 3081 3082 3084 3087
3056 3056 3056 3055 3055 3054 3054 3054 3054 3055 3055 3055 3055 3056 3057 3058 3058 3059 3060 3054 3049 3048 3049 3047 3047 3046 3045 3045 3046 3047 3049 3050 3051 3051 3052 3054 3056 3058 3059 3060 3062 3063 3064 3064 3062 3062 3064 3066 3067 3067 3067 3067 3067 3068 3069 3070 3070 3071 3073 3074 3075 3075 3076 3077 3077 3077 3079 3077 3072 3072 3075 3076 3074 3071 3070 3070 3070 3071 3073 3074 3075 3076 3077 3078 3079 3081 3083 3086
3054 3054 3054 3054 3053 3053 3052 3053 3053 3054 3053 3053 3054 3055 3055 3056 3057 3058 3056 3050 3048 3048 3047 3046 3047 3046 3046 3045 3045 3046 3048 3049 3050 3051 3051 3053 3055 3056 3057 3058 3060 3062 3063 3062 3061 3061 3062 3063 3064 3064 3065 3066 3066 3066 3067 3068 3068 3069 3070 3072 3073 3074 3074 3075 3074 3075 3077 3074 3071 3071 3073 3074 3073 3070 3070 3070 3070 3071 3072 3073 3074 3075 3076 3077 3078 3079 3082 3084
3053 3053 3052 3052 3052 3051 3051 3051 3052 3052 3052 3052 3053 3053 3054 3056 3056 3054 3051 3048 3048 3048 3046 3046 3046 3046 3046 3046 3046 3046 3047 3048 3049 3050 3051 3052 3053 3054 3054 3056 3057 3060 3060 3059 3060 3060 3059 3060 3061 3063 3063 3065 3066 3065 3065 3066 3066 3067 3068 3071 3072 3072 3073 3074 3073 3074 3074 3071 3069 3070 3070 3071 3070 3069 3069 3069 3069 3070 3071 3073 3074 3074 3075 3075 3076 3078 3080 3082
3051 3051 3051 3051 3050 3050 3050 3050 3050 3050 3050 3050 3051 3052 3053 3054 3053 3050 3048 3049 3048 3047 3046 3046 3046 3046 3046 3045 3045 3045 3045 3047 3048 3049 3050 3051 3051 3052 3053 3054 3056 3057 3058 3057 3059 3060 3058 3058 3060 3061 3061 3062 3064 3064 3063 3064 3064 3065 3066 3068 3070 3071 3074 3075 3074 3073 3071 3067 3067 3068 3068 3069 3068 3068 3068 3068 3068 3070 3071 3072 3073 3073 3074 3074 3075 3077 3079 3079
3049 3049 3049 3049 3049 3048 3048 3048 3048 3049 3049 3049 3050 3051 3052 3052 3050 3048 3048 3049 3048 3047 3046 3046 3045 3045 3045 3045 3044 3043 3043 3045 3046 3048 3049 3049 3050 3051 3051 3053 3054 3055 3057 3057 3058 3059 3058 3057 3057 3059 3060 3061 3061 3062 3062 3062 3063 3063 3064 3066 3067 3068 3071 3073 3072 3070 3068 3065 3066 3066 3067 3067 3067 3067 3067 3067 3068 3069 3070 3071 3071 3072 3073 3073 3073 3074 3075 3076
3048 3048 3048 3047 3047 3047 3047 3047 3047 3048 3048 3048 3049 3050 3050 3049 3048 3048 3048 3048 3047 3045 3045 3045 3044 3044 3044 3044 3043 3042 3042 3043 3045 3046 3047 3047 3048 3049 3049 3050 3052 3053 3055 3056 3057 3057 3057 3056 3056 3058 3059 3059 3060 3060 3060 3061 3061 3062 3063 3064 3064 3065 3067 3068 3068 3067 3066 3065 3066 3066 3066 3067 3067 3066 3067 3067 3067 3068 3069 3070 3069 3070 3070 3071 3072 3074 3076 3080
3046 3046 3046 3046 3046 3046 3046 3046 3046 3046 3047 3047 3048 3048 3048 3048 3048 3048 3047 3047 3046 3045 3044 3044 3044 3043 3043 3043 3042 3041 3041 3042 3044 3044 3045 3046 3047 3047 3048 3048 3049 3051 3052 3054 3055 3055 3055 3054 3054 3056 3057 3058 3058 3058 3059 3060 3060 3060 3061 3061 3062 3064 3065 3066 3066 3066 3066 3066 3067 3067 3067 3067 3067 3067 3066 3067 3068 3068 3069 3068 3067 3068 3068 3069 3071 3075 3079 3082
3045 3045 3045 3045 3045 3045 3045 3045 3046 3046 3046 3046 3047 3047 3047 3047 3047 3047 3046 3046 3046 3045 3044 3044 3044 3043 3043 3043 3041 3040 3041 3042 3042 3043 3044 3044 3045 3045 3046 3047 3047 3049 3050 3052 3054 3054 3054 3052 3053 3054 3055 3056 3056 3056 3057 3058 3058 3058 3059 3059 3060 3062 3063 3064 3065 3067 3067 3066 3067 3067 3067 3067 3067 3067 3067 3067 3068 3069 3070 3070 3069 3070 3071 3072 3073 3075 3077 3080
3044 3044 3044 3044 3045 3045 3045 3045 3045 3045 3045 3046 3046 3046 3046 3046 3045 3045 3044 3044 3044 3045 3045 3044 3044 3044 3044 3044 3042 3041 3041 3041 3041 3041 3042 3043 3043 3043 3044 3045 3046 3047 3048 3051 3053 3053 3053 3052 3051 3053 3054 3054 3054 3054 3054 3054 3055 3056 3057 3058 3059 3059 3061 3062 3063 3065 3066 3067 3068 3067 3067 3067 3067 3067 3066 3067 3068 3069 3070 3071 3071 3072 3073 3074 3076 3077 3077 3080
3044 3043 3043 3044 3044 3044 3044 3045 3045 3045 3045 3045 3045 3044 3044 3044 3044 3044 3043 3043 3043 3044 3044 3044 3044 3043 3044 3044 3043 3042 3042 3041 3041 3041 3041 3042 3042 3042 3043 3044 3045 3045 3047 3049 3051 3052 3053 3052 3051 3051 3052 3053 3052 3052 3052 3052 3053 3054 3056 3057 3057 3058 3059 3060 3060 3060 3062 3065 3068 3068 3068 3067 3065 3066 3066 3066 3068 3069 3071 3072 3071 3071 3071 3073 3075 3076 3077 3079
3043 3043 3043 3043 3044 3044 3044 3044 3044 3044 3044 3044 3044 3043 3043 3042 3042 3042 3042 3042 3042 3043 3044 3044 3044 3043 3042 3042 3043 3042 3042 3041 3040 3040 3040 3041 3041 3041 3042 3044 3044 3045 3046 3048 3050 3051 3051 3051 3051 3051 3051 3052 3052 3051 3051 3051 3051 3052 3054 3055 3056 3056 3057 3058 3059 3059 3059 3061 3064 3067 3067 3065 3064 3065 3065 3066 3067 3069 3070 3071 3070 3070 3069 3070 3071 3074 3075 3077
3043 3043 3043 3043 3043 3043 3043 3043 3043 3043 3043 3042 3042 3042 3041 3041 3041 3041 3041 3041 3041 3042 3043 3043 3043 3043 3042 3041 3042 3042 3042 3041 3040 3040 3039 3040 3040 3040 3042 3043 3044 3045 3045 3046 3048 3049 3049 3050 3050 3050 3051 3051 3051 3050 3050 3050 3050 3051 3052 3053 3054 3055 3056 3057 3058 3058 3057 3058 3060 3062 3063 3063 3062 3064 3065 3067 3068 3069 3069 3070 3070 3071 3070 3069 3070 3071 3073 3076
3042 3042 3042 3042 3042 3042 3042 3042 3042 3042 3042 3041 3041 3040 3040 3040 3039 3039 3040 3040 3041 3041 3042 3042 3042 3042 3041 3041 3041 3041 3041 3040 3039 3039 3039 3039 3039 3040 3041 3042 3043 3044 3045 3046 3047 3047 3048 3049 3049 3050 3050 3050 3049 3049 3049 3050 3050 3050 3051 3052 3053 3053 3054 3055 3056 3056 3056 3057 3057 3058 3060 3061 3062 3064 3066 3067 3068 3068 3068 3070 3072 3073 3073 3072 3071 3072 3074 3076
3041 3041 3042 3042 3042 3042 3041 3041 3041 3041 3041 3040 3039 3039 3038 3038 3038 3037 3038 3039 3040 3040 3040 3041 3041 3041 3041 3041 3040 3040 3040 3040 3039 3038 3038 3038 3039 3039 3040 3041 3041 3042 3043 3044 3045 3046 3047 3048 3049 3049 3049 3049 3048 3049 3048 3049 3049 3050 3050 3051 3052 3052 3053 3053 3054 3054 3054 3055 3056 3057 3060 3061 3062 3064 3066 3067 3067 3068 3070 3071 3072 3074 3074 3074 3074 3074 3075 3077
3040 3041 3042 3042 3041 3041 3041 3041 3041 3041 3040 3039 3038 3038 3037 3036 3036 3036 3037 3038 3038 3038 3039 3039 3040 3040 3040 3040 3040 3039 3039 3039 3039 3038 3038 3038 3039 3039 3039 3040 3040 3041 3042 3042 3043 3043 3045 3047 3048 3049 3049 3049 3049 3049 3048 3048 3048 3049 3050 3051 3051 3052 3052 3052 3053 3053 3053 3054 3054 3055 3058 3059 3061 3063 3064 3065 3067 3069 3071 3072 3072 3073 3074 3074 3074 3075 3075 3076
3040 3041 3041 3041 3041 3041 3041 3041 3041 3040 3039 3038 3037 3037 3036 3035 3035 3035 3036 3036 3036 3037 3037 3038 3038 3039 3039 3039 3039 3039 3039 3038 3038 3038 3038 3038 3038 3038 3039 3039 3040 3040 3040 3041 3042 3042 3043 3046 3047 3047 3048 3049 3050 3049 3048 3047 3048 3048 3049 3050 3051 3052 3052 3052 3052 3052 3052 3053 3053 3054 3055 3057 3060 3062 3062 3064 3066 3068 3070 3071 3072 3074 3074 3074 3073 3073 3074 3075
3040 3041 3041 3041 3041 3041 3041 3041 3040 3039 3038 3037 3037 3036 3035 3035 3035 3035 3035 3035 3035 3036 3036 3036 3037 3038 3038 3038 3039 3038 3038 3038 3038 3038 3038 3038 3038 3038 3038 3039 3039 3040 3040 3041 3041 3042 3043 3044 3045 3046 3046 3047 3047 3047 3047 3047 3047 3047 3047 3049 3050 3051 3052 3051 3051 3051 3051 3052 3053 3053 3053 3056 3058 3060 3061 3063 3065 3067 3069 3070 3071 3072 3073 3074 3073 3073 3074 3075
3040 3040 3041 3041 3041 3041 3041 3040 3039 3038 3037 3036 3036 3036 3035 3035 3035 3035 3034 3034 3034 3035 3035 3035 3036 3036 3037 3037 3037 3037 3037 3037 3037 3037 3038 3037 3037 3038 3038 3038 3039 3040 3040 3041 3042 3042 3043 3043 3044 3045 3045 3045 3046 3046 3046 3046 3046 3046 3046 3047 3048 3050 3051 3051 3051 3052 3052 3052 3052 3053 3053 3055 3056 3058 3060 3062 3064 3067 3068 3069 3070 3071 3072 3073 3073 3074 3074 3074
3040 3040 3040 3040 3041 3041 3040 3039 3038 3037 3036 3036 3036 3036 3035 3035 3035 3035 3034 3034 3034 3034 3034 3034 3034 3035 3035 3036 3036 3036 3037 3037 3037 3037 3037 3037 3037 3037 3037 3037 3038 3040 3041 3041 3041 3042 3042 3043 3043 3044 3044 3044 3045 3045 3045 3045 3046 3046 3046 3046 3047 3048 3049 3051 3051 3053 3053 3053 3052 3053 3054 3056 3057 3059 3060 3062 3064 3065 3067 3068 3069 3070 3071 3072 3073 3073 3073 3074
3040 3040 3040 3040 3040 3040 3039 3039 3038 3037 3037 3036 3036 3036 3035 3035 3035 3034 3034 3034 3034 3033 3033 3033 3033 3033 3034 3035 3035 3035 3036 3036 3036 3036 3036 3036 3036 3036 3036 3037 3038 3040 3040 3040 3041 3041 3041 3041 3042 3042 3043 3043 3044 3045 3045 3045 3046 3046 3046 3046 3047 3047 3048 3050 3051 3053 3053 3053 3052 3052 3054 3056 3058 3059 3061 3061 3062 3064 3066 3067 3068 3069 3070 3071 3072 3073 3073 3074
3039 3039 3039 3040 3040 3039 3039 3038 3038 3037 3037 3036 3036 3035 3035 3035 3034 3034 3033 3033 3033 3032 3032 3032 3032 3033 3033 3033 3034 3034 3034 3035 3035 3035 3034 3034 3035 3035 3035 3037 3038 3039 3039 3040 3040 3040 3040 3040 3041 3041 3042 3043 3044 3045 3045 3045 3046 3046 3046 3046 3046 3047 3048 3049 3050 3052 3053 3053 3052 3052 3053 3055 3057 3058 3059 3060 3061 3064 3065 3066 3067 3068 3069 3069 3071 3072 3073 3074
3039 3039 3039 3039 3039 3039 3038 3038 3038 3037 3037 3036 3035 3035 3034 3034 3033 3033 3033 3032 3032 3032 3032 3032 3032 3032 3032 3032 3032 3033 3033 3034 3034 3034 3033 3033 3034 3036 3036 3037 3038 3039 3039 3039 3040 3039 3039 3040 3040 3040 3041 3042 3043 3044 3044 3045 3046 3046 3046 3046 3046 3047 3047 3048 3049 3050 3051 3052 3052 3053 3053 3055 3056 3058 3059 3060 3062 3063 3064 3065 3066 3067 3066 3067 3069 3071 3072 3074
3039 3039 3039 3039 3039 3038 3038 3038 3038 3037 3037 3036 3035 3034 3034 3033 3033 3032 3032 3032 3032 3031 3031 3031 3031 3031 3031 3031 3031 3031 3032 3033 3033 3032 3032 3033 3034 3036 3037 3037 3038 3038 3039 3039 3039 3039 3039 3039 3040 3040 3040 3041 3041 3042 3043 3044 3046 3046 3046 3046 3046 3046 3046 3047 3048 3049 3050 3051 3052 3052 3053 3054 3056 3057 3059 3060 3062 3062 3063 3064 3065 3066 3067 3067 3069 3071 3072 3073